Pellston, MI

12:03 PM EST on February 20, 2017 (GMT -0500)
Pellston Regional Airport Of Emmet County

Weather History for KPLN - May, 2014

Change the Weather History Date:

Saturday, May 3, 2014

  Actual Average Record
Temperature  
Mean Temperature 42 °F -  
Max Temperature 46 °F 57 °F 85 °F (1955)
Min Temperature 36 °F 33 °F 21 °F (1952)
Degree Days  
Heating Degree Days 22    
Moisture  
Dew Point 40 °F    
Average Humidity 89    
Maximum Humidity 97    
Minimum Humidity 82    
Precipitation  
Precipitation 0.23 in - - ()
Sea Level Pressure  
Sea Level Pressure 29.66 in    
Wind  
Wind Speed 5 mph (West)    
Max Wind Speed 23 mph    
Max Gust Speed 34 mph    
Visibility 8 miles    
Events Rain    
Averages and records for this station are not official NWS values.
T = Trace of Precipitation, MM = Missing Value Source: NWS Daily Summary

Daily Weather History Graph

Daily Weather History Graph

Search for Another Location

Airport or City:

Trip Planner

Search our weather history database for the weather conditions in past years. The results will help you decide how hot, cold, wet, or windy it might be!

Date:

Astronomy

May. 03, 2014 Rise Set
Actual Time 6:24 AM EDT 8:48 PM EDT
Civil Twilight 5:51 AM EDT 9:21 PM EDT
Nautical Twilight 5:09 AM EDT 10:03 PM EDT
Astronomical Twilight 4:23 AM EDT 10:50 PM EDT
Moon 9:50 AM EDT (5/3) 12:11 AM EDT (5/3)
Length of Visible Light 15h 30m
Length of Day
14h 24m
Waxing Crescent, 19% of the Moon is Illuminated
May 3
Waxing Crescent
May 6
First Quarter
May 14
Full
May 21
Last Quarter
May 28
New

Hourly Weather History & Observations

Time (EDT) Temp. Windchill Dew Point Humidity Pressure Visibility Wind Dir Wind Speed Gust Speed Precip Events Conditions
12:10 AM 43.0 °F 41.3 °F 39.9 °F 89% 29.68 in 10.0 mi West 3.5 mph - N/A   Overcast
12:21 AM 43.0 °F - 41.0 °F 93% 29.68 in 10.0 mi Calm Calm - N/A   Overcast
12:54 AM 43.0 °F - 39.9 °F 89% 29.68 in 10.0 mi Calm Calm - N/A   Overcast
1:54 AM 43.0 °F 41.3 °F 41.0 °F 93% 29.68 in 10.0 mi South 3.5 mph - N/A   Overcast
2:54 AM 42.1 °F 40.2 °F 39.9 °F 92% 29.66 in 10.0 mi South 3.5 mph - N/A   Mostly Cloudy
3:54 AM 42.1 °F - 39.9 °F 92% 29.65 in 10.0 mi Calm Calm - N/A   Overcast
4:54 AM 42.1 °F 40.2 °F 41.0 °F 96% 29.64 in 10.0 mi SE 3.5 mph - 0.00 in   Overcast
6:08 AM 42.1 °F - 41.0 °F 96% 29.62 in 7.0 mi Calm Calm - 0.00 in Rain Light Rain
6:22 AM 42.1 °F - 41.0 °F 96% 29.62 in 7.0 mi Calm Calm - 0.00 in   Overcast
6:27 AM 43.0 °F - 41.0 °F 93% 29.62 in 7.0 mi Calm Calm - 0.00 in   Overcast
6:42 AM 43.0 °F - 41.0 °F 93% 29.62 in 5.0 mi Calm Calm - 0.00 in Rain Light Rain
6:54 AM 43.0 °F - 41.0 °F 93% 29.63 in 7.0 mi Calm Calm - 0.01 in   Overcast
7:15 AM 43.0 °F 41.3 °F 42.1 °F 97% 29.61 in 5.0 mi SE 3.5 mph - N/A   Overcast
7:54 AM 43.0 °F 40.3 °F 42.1 °F 97% 29.63 in 5.0 mi SSE 4.6 mph - 0.00 in Rain Light Rain
8:06 AM 43.0 °F 40.3 °F 42.1 °F 97% 29.61 in 5.0 mi SSE 4.6 mph - 0.00 in   Overcast
8:54 AM 45.0 °F - 43.0 °F 93% 29.62 in 6.0 mi Calm Calm - 0.01 in Rain Light Rain
9:54 AM 46.0 °F - 43.0 °F 89% 29.61 in 7.0 mi Calm Calm - 0.00 in   Overcast
10:54 AM 46.9 °F - 43.0 °F 86% 29.60 in 9.0 mi Calm Calm - 0.00 in Rain Light Rain
11:13 AM 46.9 °F - 44.1 °F 90% 29.58 in 6.0 mi West 5.8 mph - 0.00 in Rain Light Rain
11:54 AM 46.9 °F - 44.1 °F 90% 29.60 in 6.0 mi West 5.8 mph - 0.01 in Rain Light Rain
11:59 AM 46.9 °F - 44.1 °F 90% 29.59 in 5.0 mi West 6.9 mph - 0.01 in Rain Light Rain
12:03 PM 46.9 °F - 44.1 °F 90% 29.59 in 5.0 mi West 5.8 mph - 0.01 in Rain Light Rain
12:14 PM 46.9 °F - 44.1 °F 90% 29.59 in 5.0 mi West 8.1 mph - 0.02 in Rain Light Rain
12:21 PM 46.0 °F 41.0 °F 43.0 °F 89% 29.59 in 5.0 mi WSW 10.4 mph - 0.03 in Rain Light Rain
12:29 PM 46.0 °F 41.0 °F 43.0 °F 89% 29.59 in 4.0 mi WSW 10.4 mph - 0.05 in Rain Rain
12:54 PM 45.0 °F 40.1 °F 42.1 °F 90% 29.61 in 5.0 mi WSW 9.2 mph - 0.09 in Rain Light Rain
1:54 PM 46.0 °F 41.4 °F 42.1 °F 86% 29.62 in 10.0 mi West 9.2 mph - 0.03 in Rain Light Rain
2:02 PM 46.0 °F 41.9 °F 42.1 °F 86% 29.60 in 10.0 mi WNW 8.1 mph - 0.00 in Rain Light Rain
2:54 PM 45.0 °F 39.7 °F 41.0 °F 86% 29.63 in 10.0 mi WNW 10.4 mph - 0.01 in Rain Light Rain
3:34 PM 44.1 °F 37.1 °F 39.9 °F 85% 29.63 in 10.0 mi WNW 15.0 mph - 0.00 in   Overcast
4:13 PM 43.0 °F 35.1 °F 39.0 °F 86% 29.64 in 10.0 mi WNW 17.3 mph 23.0 mph 0.00 in Rain Light Rain
4:25 PM 43.0 °F 35.7 °F 39.0 °F 86% 29.65 in 10.0 mi WNW 15.0 mph 25.3 mph 0.00 in Rain Light Rain
4:54 PM 42.1 °F 32.6 °F 37.9 °F 85% 29.68 in 5.0 mi NW 23.0 mph 34.5 mph 0.03 in Rain Light Rain
5:54 PM 42.1 °F 34.9 °F 37.9 °F 85% 29.71 in 10.0 mi NW 13.8 mph 21.9 mph 0.04 in Rain Light Rain
6:27 PM 42.1 °F 34.9 °F 37.9 °F 85% 29.71 in 10.0 mi NW 13.8 mph - 0.00 in   Overcast
6:54 PM 43.0 °F 35.7 °F 39.0 °F 86% 29.74 in 10.0 mi NW 15.0 mph - 0.00 in   Overcast
7:28 PM 42.1 °F 34.2 °F 37.9 °F 85% 29.73 in 10.0 mi NW 16.1 mph 21.9 mph N/A   Mostly Cloudy
7:54 PM 42.1 °F 36.1 °F 37.0 °F 82% 29.76 in 10.0 mi WNW 10.4 mph - N/A   Overcast
8:15 PM 42.1 °F 35.7 °F 37.0 °F 82% 29.75 in 10.0 mi WNW 11.5 mph - N/A   Overcast
8:33 PM 41.0 °F 36.4 °F 37.0 °F 86% 29.75 in 10.0 mi WNW 6.9 mph - N/A   Mostly Cloudy
8:54 PM 39.9 °F 35.8 °F 37.0 °F 89% 29.78 in 10.0 mi West 5.8 mph - N/A   Mostly Cloudy
9:54 PM 41.0 °F 39.0 °F 36.0 °F 82% 29.79 in 10.0 mi West 3.5 mph - N/A   Mostly Cloudy
10:54 PM 39.0 °F 35.7 °F 35.1 °F 86% 29.79 in 10.0 mi West 4.6 mph - N/A   Partly Cloudy
11:54 PM 36.0 °F 33.3 °F 34.0 °F 93% 29.78 in 10.0 mi West 3.5 mph - N/A   Clear